Regional Weather Roundup
Issued by NWS

Home | Current Version | Previous Version | Graphics & Text | Print | Product List | Glossary On
Versions: 1 2 3 4 5 6 7 8 9 10 11 12 13 14 15 16 17 18 19 20 21 22 23 24 25 26 27 28 29 30 31 32 33 34 35 36 37 38 39 40 41 42 43 44 45 46 47 48 49 50
000
ASUS44 KMEG 042110
RWRTN
TENNESSEE HOURLY STATE WEATHER ROUNDUP
NATIONAL WEATHER SERVICE MEMPHIS TN
400 PM CDT TUE AUG 04 2015

TNZ002-004-019-021-049-052-054-088>092-042200-
WEST TENNESSEE

CITY           SKY/WX    TMP DP  RH WIND       PRES   REMARKS
MEMPHIS INTL   PTSUNNY   97  68  38 VRB3      29.97F HX 102
NWS MEMPHIS      N/A     96 N/A N/A MISG        N/A
JACKSON        MOSUNNY   96  67  38 S5        29.97F HX 100
DYERSBURG        N/A    N/A N/A N/A MISG        N/A
UNION CITY     SUNNY     91  73  55 W6        29.95F HX 100
PARIS          MOSUNNY   91  70  49 SW8       29.98F HX  97
LEXINGTON      SUNNY     93  68  43 N3        29.97F HX  97
$$

TNZ008-025-027-028-033-062-065-066-042200-
NORTH MIDDLE TENNESSEE

CITY           SKY/WX    TMP DP  RH WIND       PRES   REMARKS
NASHVILLE      PTSUNNY   95  65  37 SW7       29.97F HX  97
CLARKSVILLE    SUNNY     92  72  51 W9        29.96F HX  99
SMYRNA         MOSUNNY  100  65  31 NW8       29.97F HX 103
COOKEVILLE     SUNNY     97  73  46 W6        30.00F HX 107
CROSSVILLE     SUNNY     89  65  44 VRB7      30.06F HX  91
$$

TNZ061-075-076-078-094-096-097-042200-
SOUTH MIDDLE TENNESSEE

CITY           SKY/WX    TMP DP  RH WIND       PRES   REMARKS
FAYETTEVILLE     N/A     91  63  38 VRB5      30.00F HX  92
TULLAHOMA      SUNNY     93  63  36 VRB3      30.01F HX  94
WINCHESTER     SUNNY     93  66  40 VRB5      30.00F HX  96
MCMINNVILLE    SUNNY     93  72  49 CALM      30.00F HX 100
COLUMBIA       SUNNY     97  63  32 NW6       29.97F HX  98
SHELBYVILLE    SUNNY     97  70  41 CALM      29.99F HX 103
$$

TNZ017-018-042-046-047-042200-
NORTHEAST TENNESSEE

CITY           SKY/WX    TMP DP  RH WIND       PRES   REMARKS
TRI CITIES     CLOUDY    90  66  45 W8        30.02S HX  92
ELIZABETHTON   CLEAR     88  64  45 W8        30.03R
$$

TNZ012-013-036-069-073-074-042200-
CENTRAL EAST TENNESSEE

CITY           SKY/WX    TMP DP  RH WIND       PRES   REMARKS
KNOXVILLE      NOT AVBL
OAK RIDGE      SUNNY     94  67  41 VRB3      30.00F HX  97
GATLINBURG       N/A     93  64  38 W5        29.99S HX  95
MORRISTOWN     CLEAR     91  68  46 W8        30.02S HX  95
$$

TNZ083-085-099-042200-
SOUTHEAST TENNESSEE

CITY           SKY/WX    TMP DP  RH WIND       PRES   REMARKS
CHATTANOOGA    MOSUNNY   97  59  28 SW6       29.97F HX  96
$$

SKY/WX REPORTED AS FAIR MEANS FEW OR NO CLOUDS BELOW
12 THOUSAND FEET.




USA.gov is the U.S. government's official web portal to all federal, state and local government web resources and services.